Home   Weather   Wichita Falls   Past weeks

Flag for USA Past Weather in Wichita Falls, Texas, USA — Yesterday and Last 2 Weeks

Now
51 °F

Overcast.


Feels Like: 47 °F
Forecast: 42 / 60 °F
Wind: 10 mph from Northwest

Location: Wichita Falls - Sheppard Air Force Base

Current Time: Apr 29, 2017 at 10:37:13 pm

Latest Report: Apr 29, 2017 at 9:52 pm


Visibility: 10 mi

Pressure: 29.79 "Hg

Humidity: 80%

Dew Point: 45 °F

Location of Wichita FallsLocation

Past Weather in Wichita Falls — Graph

°F

Wichita Falls Temperature Yesterday

Maximum temperature yesterday: 84 °F (at 1:52 pm)
Minimum temperature yesterday: 58 °F (at 3:52 am)
Average temperature yesterday: 71 °F

High & Low Weather Summary for the Past Weeks

 TemperatureHumidityPressure
High93 °F (Apr 25, 3:52 pm)100% (Apr 17, 11:36 pm)30.22 "Hg (Apr 17, 11:36 pm)
Low42 °F (Apr 27, 5:52 am)16% (Apr 25, 3:52 pm)29.26 "Hg (Apr 25, 6:52 pm)
Average65 °F70%29.82 "Hg
* Reported Apr 14 8:52 pm — Apr 29 8:52 pm, Wichita Falls, Weather by CustomWeather, © 2017

Note: Actual official high and low records may vary slightly from our data, if they occured in-between our weather recording intervals... More about our weather records

Advertising

Wichita Falls Weather History for the Previous 24 Hours

Scroll right to see more
 ConditionsComfort  
Time TempWeatherWind HumidityBarometerVisibility
8:52 pm
Sat, Apr 29
51 °FOvercast.13 mph83%29.77 "Hg10 mi
7:52 pm52 °FOvercast.14 mph80%29.70 "Hg10 mi
6:52 pm52 °FOvercast.23 mph80%29.68 "Hg10 mi
6:36 pm52 °FOvercast.17 mph83%29.71 "Hg10 mi
5:52 pm51 °FOvercast.17 mph89%29.67 "Hg10 mi
4:52 pm52 °FOvercast.17 mph86%29.65 "Hg10 mi
4:36 pm52 °FOvercast.21 mph86%29.68 "Hg10 mi
3:52 pm52 °FLow clouds.22 mph93%29.65 "Hg10 mi
2:52 pm52 °FLow clouds.18 mph93%29.64 "Hg10 mi
2:21 pm53 °FFog.13 mph96%29.66 "Hg5 mi
1:52 pm52 °FLight rain. Fog.9 mph93%29.65 "Hg4 mi
1:34 pm52 °FLight rain. Fog.13 mph93%29.66 "Hg3 mi
1:17 pm51 °FLight rain. Fog.14 mph92%29.67 "Hg2 mi
12:52 pm51 °FLight rain. Fog.15 mph92%29.64 "Hg6 mi
11:52 am51 °FLight rain. Fog.10 mph96%29.62 "Hg6 mi
11:33 am51 °FLight rain. Fog.12 mph96%29.65 "Hg4 mi
11:07 am51 °FRain. Fog.13 mph92%29.64 "Hg2 mi
11:01 am51 °FLight rain. Fog.13 mph92%29.64 "Hg3 mi
10:39 am52 °FMostly cloudy.15 mph86%29.64 "Hg10 mi
10:01 am53 °FMostly cloudy.15 mph89%29.62 "Hg10 mi
9:23 am54 °FLight rain. Cloudy.12 mph86%29.63 "Hg9 mi
8:52 am55 °FOvercast.20 mph77%29.54 "Hg10 mi
8:24 am55 °FMostly cloudy.17 mph77%29.58 "Hg10 mi
7:10 am56 °FBroken clouds.28 mph84%29.57 "Hg10 mi
6:52 am58 °FMostly cloudy.20 mph81%29.54 "Hg10 mi
6:36 am60 °FMostly cloudy.20 mph78%29.58 "Hg10 mi
5:52 am71 °FMostly cloudy.20 mph78%29.48 "Hg7 mi
5:22 am75 °FOvercast.16 mph79%29.52 "Hg7 mi
4:52 am75 °FPassing clouds.23 mph79%29.42 "Hg7 mi
3:52 am73 °FClear.21 mph81%29.42 "Hg7 mi
2:52 am74 °FClear.26 mph76%29.42 "Hg9 mi
1:52 am73 °FClear.17 mph81%29.47 "Hg8 mi
12:52 am74 °FClear.17 mph79%29.51 "Hg8 mi
11:52 pm
Fri, Apr 28
74 °FPassing clouds.9 mph79%29.54 "Hg8 mi
10:52 pm73 °FPassing clouds.10 mph79%29.56 "Hg9 mi
Weather by CustomWeather, © 2017

See weather overviewHow to use our weather pages